DELTA 1 DEB

Satellite information

Favourite Embed

Satellite Type and Status

DEBRISIN ORBIT

Key statistics

Satellite DELTA 1 DEB at a glance.

Uptime

17400

Days in orbit

Revolutions

≈ 14.1

Per day

Orbit

SSO

Sun Synchronous Orbit

Inclination

99.2

Latest

Satellite identification and parameters

Extended collection of information and parameters for DELTA 1 DEB.

Object identification

Identified? True

Debris? True

Object name: DELTA 1 DEB

International designator: 1978-026U

Object number (NORAD): 12179

Object ID (CCSDS): 12179

Country: UNITED STATES OF AMERICA (US)

Current information (Y/N): Y

RCS size: SMALL

Orbital parameters

Period: 102.284 minutes

Inclination: 99.1501 deg

SMA: 7244.871 km

Apoapsis: 986.349 km

Periapsis: 747.123 km

RAAN: 231.4315 deg

Eccentricy: 0.01651

Argument of periapsis: 76.3425 deg

Mean anomaly: 95.1773 deg

Mean motion: 14.07851201 rev/day

Mean motion (dot): 0.00001421 rev/day2

B* drag term: 0.00076302 1/REarth

Two-line elements (TLE)

Creation date: Oct. 23, 2025, 10:16 p.m.

Reference frame: TEME

Reference center: EARTH

Epoch: Oct. 23, 2025, 2:06 p.m. UTC

TLE line 0: 0 DELTA 1 DEB

TLE line 1: 1 12179U 78026U 25296.58750308 .00001421 00000-0 76302-3 0 9992

TLE line 2: 2 12179 99.1501 231.4315 0165100 76.3425 95.1773 14.07851201280625

Live tracking on map

Real-time ground track for satellite DELTA 1 DEB.

In-orbit conjunctions

A list of the most updated potential collisions computed for object DELTA 1 DEB.

Target Orbit TCA Probability of collision Miss distance Type
DMSP 5D-2 F13 DEB SSO 2025-08-06 06:45:59 0.0001023752 62.0 (m) DEBRIS
EXPLORER 25 (INJUN-4) HEO 2024-09-09 14:02:34 0.0001042778 681.0 (m) PAYLOAD

Associated space launch

Earth observation satellite

DELTA 1 DEB was lifted into orbit during the mission ‘Delta 2910 | Landsat 3’, on board a Delta 2910 space rocket.

The launch took place on March 5, 1978, 5:54 p.m. from Space Launch Complex 2W.

For more information about the launch, click the button.

Launch to space Delta 2910 | Landsat 3
Delta 2910 | Landsat 3

Agency: N/A

Status: Launch Successful

Launch date: March 5, 1978, 5:54 p.m. UTC

Rocket: Delta 2910

Launch pad: Space Launch Complex 2W

Location: Vandenberg SFB, CA, USA

...

Latest news about this satellite

There are no fresh news available about this satellite. Check back as we update our databases every day.


Newsletter sign-up

Weekly statistics, charts and insights to help you stay on top of the space industry.